Weather History for Corpus Christi, TX

Change the Weather History Date:

Monday, December 2, 2013

  Actual Average Record
Temperature  
Mean Temperature 67 °F 61 °F  
Max Temperature 78 °F 71 °F 87 °F (1964)
Min Temperature 56 °F 51 °F 36 °F (1985)
Degree Days  
Heating Degree Days 0 6  
Month to date heating degree days 0 12  
Since 1 July heating degree days 157 113  
Cooling Degree Days 2 2  
Month to date cooling degree days 3 4  
Year to date cooling degree days 4115 3479  
Growing Degree Days 16 (Base 50)    
Moisture  
Dew Point 60 °F    
Average Humidity 80    
Maximum Humidity 100    
Minimum Humidity 60    
Precipitation  
Precipitation 0.00 in 0.05 in 2.10 in (1994)
Month to date precipitation 0.00 0.10  
Year to date precipitation 23.16 30.03  
Snow  
Snow 0.00 in - - ()
Month to date snowfall 0.0  
Since 1 July snowfall 0.0  
Snow Depth 0.00 in    
Sea Level Pressure  
Sea Level Pressure 29.86 in    
Wind  
Wind Speed 6 mph (SSW)    
Max Wind Speed 15 mph    
Max Gust Speed 17 mph    
Visibility 5 miles    
Events Fog    
T = Trace of Precipitation, MM = Missing Value Source: NWS Daily Summary

Daily Weather History Graph

Daily Weather History Graph

Search for Another Location

Airport:

Trip Planner

Search our weather history database for the weather conditions in past years. The results will help you decide how hot, cold, wet, or windy it might be!

Date:

Astronomy

Dec. 02, 2013 Rise Set
Actual Time 7:04 AM CST 5:34 PM CST
Civil Twilight 6:39 AM CST 5:59 PM CST
Nautical Twilight 6:10 AM CST 6:28 PM CST
Astronomical Twilight 5:41 AM CST 6:57 PM CST
Moon 6:34 AM CST (12/2) 5:36 PM CST (12/2)
Length of Visible Light 11h 20m
Length of Day
10h 29m
Waning Crescent, 0% of the Moon is Illuminated
Dec 2
Waning Crescent
Dec 2
New
Dec 9
First Quarter
Dec 17
Full
Dec 25
Last Quarter

Hourly Weather History & Observations

Time (CST) Temp. Dew Point Humidity Pressure Visibility Wind Dir Wind Speed Gust Speed Precip Events Conditions
12:51 AM 61.0 °F 59.0 °F 93% 29.96 in 10.0 mi SSW 6.9 mph - N/A   Scattered Clouds
1:51 AM 60.1 °F 57.9 °F 93% 29.95 in 10.0 mi SSW 3.5 mph - N/A   Scattered Clouds
2:51 AM 57.9 °F 57.0 °F 97% 29.94 in 6.0 mi West 3.5 mph - N/A Fog Scattered Clouds
3:11 AM 57.2 °F 57.2 °F 100% 29.94 in 1.8 mi WSW 3.5 mph - N/A Fog Scattered Clouds
3:16 AM 57.2 °F 57.2 °F 100% 29.94 in 0.5 mi Calm Calm - N/A Fog Fog
3:51 AM 57.0 °F 55.9 °F 96% 29.92 in 0.2 mi WSW 4.6 mph - N/A Fog Fog
4:51 AM 57.0 °F 55.9 °F 96% 29.91 in 0.2 mi Calm Calm - N/A Fog Fog
4:56 AM 57.2 °F 55.4 °F 94% 29.90 in 0.5 mi Calm Calm - N/A Fog Fog
5:13 AM 57.2 °F 55.4 °F 94% 29.89 in 0.2 mi SSW 3.5 mph - N/A Fog Fog
5:41 AM 55.4 °F 55.4 °F 100% 29.90 in 0.5 mi Calm Calm - N/A Fog Fog
5:51 AM 55.9 °F 55.0 °F 97% 29.90 in 0.8 mi Calm Calm - N/A   Mostly Cloudy
6:10 AM 55.4 °F 55.4 °F 100% 29.90 in 0.2 mi SSW 4.6 mph - N/A Fog Fog
6:39 AM 55.4 °F 55.4 °F 100% 29.90 in 0.5 mi SSW 5.8 mph - N/A Fog Fog
6:51 AM 55.9 °F 55.0 °F 97% 29.90 in 0.5 mi SSW 4.6 mph - N/A Fog Fog
7:19 AM 55.4 °F 55.4 °F 100% 29.90 in 0.2 mi South 3.5 mph - N/A Fog Fog
7:51 AM 57.0 °F 55.9 °F 96% 29.90 in 0.2 mi South 3.5 mph - N/A Fog Fog
8:15 AM 57.2 °F 57.2 °F 100% 29.91 in 0.2 mi SSW 5.8 mph - N/A Fog Fog
8:51 AM 61.0 °F 60.1 °F 97% 29.91 in 0.2 mi SSW 5.8 mph - N/A Fog Fog
8:58 AM 60.8 °F 60.8 °F 100% 29.91 in 0.5 mi WSW 5.8 mph - N/A Fog Fog
9:09 AM 60.8 °F 60.8 °F 100% 29.91 in 0.2 mi SW 8.1 mph - N/A Fog Fog
9:51 AM 62.1 °F 62.1 °F 100% 29.92 in 0.2 mi SW 8.1 mph - N/A Fog Fog
9:58 AM 62.6 °F 62.6 °F 100% 29.92 in 0.8 mi SW 10.4 mph - N/A   Mostly Cloudy
10:01 AM 62.6 °F 62.6 °F 100% 29.92 in 1.2 mi SW 10.4 mph - N/A   Mostly Cloudy
10:18 AM 64.4 °F 62.6 °F 94% 29.91 in 2.5 mi SW 6.9 mph - N/A   Mostly Cloudy
10:21 AM 64.4 °F 62.6 °F 94% 29.91 in 4.0 mi SSW 8.1 mph - N/A   Mostly Cloudy
10:51 AM 64.9 °F 64.0 °F 97% 29.91 in 6.0 mi WSW 6.9 mph - N/A   Mostly Cloudy
11:20 AM 66.2 °F 64.4 °F 94% 29.89 in 10.0 mi WSW 6.9 mph - N/A   Scattered Clouds
11:51 AM 70.0 °F 64.9 °F 84% 29.87 in 10.0 mi Variable 6.9 mph - N/A   Scattered Clouds
12:51 PM 73.9 °F 64.9 °F 73% 29.83 in 10.0 mi WSW 6.9 mph - N/A   Scattered Clouds
1:51 PM 75.9 °F 64.0 °F 67% 29.79 in 10.0 mi SW 9.2 mph - N/A   Scattered Clouds
2:51 PM 77.0 °F 63.0 °F 62% 29.75 in 10.0 mi SSW 8.1 mph - N/A   Scattered Clouds
3:51 PM 78.1 °F 64.0 °F 62% 29.75 in 10.0 mi South 5.8 mph - N/A   Scattered Clouds
4:51 PM 77.0 °F 63.0 °F 62% 29.74 in 10.0 mi South 8.1 mph - N/A   Mostly Cloudy
5:51 PM 71.1 °F 64.0 °F 78% 29.74 in 10.0 mi SE 9.2 mph - N/A   Scattered Clouds
6:51 PM 68.0 °F 63.0 °F 84% 29.74 in 10.0 mi SSE 12.7 mph - N/A   Scattered Clouds
7:51 PM 66.9 °F 62.1 °F 84% 29.75 in 10.0 mi South 10.4 mph - N/A   Scattered Clouds
8:51 PM 64.0 °F 61.0 °F 90% 29.77 in 10.0 mi South 6.9 mph - N/A   Scattered Clouds
9:51 PM 63.0 °F 61.0 °F 93% 29.77 in 10.0 mi South 8.1 mph - N/A   Partly Cloudy
10:51 PM 63.0 °F 61.0 °F 93% 29.77 in 10.0 mi South 6.9 mph - N/A   Partly Cloudy
11:51 PM 62.1 °F 60.1 °F 93% 29.75 in 10.0 mi South 8.1 mph - N/A   Partly Cloudy